Time,TemperatureF,DewpointF,PressureIn,WindDirection,WindDirectionDegrees,WindSpeedMPH,WindSpeedGustMPH,Humidity,HourlyPrecipIn,Conditions,Clouds,dailyrainin,SolarRadiationWatts/m^2,SoftwareType,DateUTC
2013-02-16 00:00:00,36.1,24.0,30.23,NNW,338,0.0,-999.0,63,-99.99,,,0.00,0,weatherlink.com 1.10,2013-02-16 06:00:00,
2013-02-16 00:15:00,36.1,25.0,30.22,NNW,338,0.0,-999.0,65,-99.99,,,0.00,0,weatherlink.com 1.10,2013-02-16 06:15:00,
2013-02-16 00:30:00,36.0,25.0,30.22,NNW,338,0.0,-999.0,64,-99.99,,,0.00,0,weatherlink.com 1.10,2013-02-16 06:30:00,
2013-02-16 00:45:00,35.8,24.0,30.22,NW,325,0.0,-999.0,63,-99.99,,,0.00,0,weatherlink.com 1.10,2013-02-16 06:45:00,
2013-02-16 01:00:00,35.6,24.0,30.22,NW,325,0.0,-999.0,63,-99.99,,,0.00,0,weatherlink.com 1.10,2013-02-16 07:00:00,
2013-02-16 01:15:00,35.4,24.0,30.23,NW,325,0.0,-999.0,63,-99.99,,,0.00,0,weatherlink.com 1.10,2013-02-16 07:15:00,
2013-02-16 01:30:00,35.2,23.0,30.22,NW,325,0.0,-999.0,62,-99.99,,,0.00,0,weatherlink.com 1.10,2013-02-16 07:30:00,
2013-02-16 01:45:00,35.0,23.0,30.22,NW,325,0.0,-999.0,62,-99.99,,,0.00,0,weatherlink.com 1.10,2013-02-16 07:45:00,
2013-02-16 02:00:00,34.7,23.0,30.22,NW,325,0.0,-999.0,62,-99.99,,,0.00,0,weatherlink.com 1.10,2013-02-16 08:00:00,
2013-02-16 02:15:00,34.4,23.0,30.22,NW,325,0.0,-999.0,63,-99.99,,,0.00,0,weatherlink.com 1.10,2013-02-16 08:15:00,
2013-02-16 02:30:00,33.8,24.0,30.22,NW,325,0.0,-999.0,67,-99.99,,,0.00,0,weatherlink.com 1.10,2013-02-16 08:30:00,
2013-02-16 02:45:00,33.2,24.0,30.22,NW,325,0.0,-999.0,68,-99.99,,,0.00,0,weatherlink.com 1.10,2013-02-16 08:45:00,
2013-02-16 03:00:00,32.8,24.0,30.22,NW,325,0.0,-999.0,70,-99.99,,,0.00,0,weatherlink.com 1.10,2013-02-16 09:00:00,
2013-02-16 03:15:00,32.4,23.0,30.22,NW,325,0.0,-999.0,68,-99.99,,,0.00,0,weatherlink.com 1.10,2013-02-16 09:15:00,
2013-02-16 03:30:00,32.2,23.0,30.22,NW,325,0.0,-999.0,70,-99.99,,,0.00,0,weatherlink.com 1.10,2013-02-16 09:30:00,
2013-02-16 03:45:00,32.3,25.0,30.22,WNW,290,0.0,-999.0,74,-99.99,,,0.00,0,weatherlink.com 1.10,2013-02-16 09:45:00,
2013-02-16 04:00:00,32.1,25.0,30.22,WNW,290,0.0,-999.0,74,-99.99,,,0.00,0,weatherlink.com 1.10,2013-02-16 10:00:00,
2013-02-16 04:15:00,31.6,25.0,30.22,WNW,290,0.0,-999.0,75,-99.99,,,0.00,0,weatherlink.com 1.10,2013-02-16 10:15:00,
2013-02-16 04:30:00,31.2,24.0,30.23,WNW,290,0.0,-999.0,75,-99.99,,,0.00,0,weatherlink.com 1.10,2013-02-16 10:30:00,
2013-02-16 04:45:00,30.6,24.0,30.23,WNW,290,0.0,-999.0,76,-99.99,,,0.00,0,weatherlink.com 1.10,2013-02-16 10:45:00,
2013-02-16 05:00:00,30.2,23.0,30.23,WNW,290,0.0,-999.0,75,-99.99,,,0.00,0,weatherlink.com 1.10,2013-02-16 11:00:00,
2013-02-16 05:15:00,30.1,22.0,30.23,WNW,290,0.0,-999.0,73,-99.99,,,0.00,0,weatherlink.com 1.10,2013-02-16 11:15:00,
2013-02-16 05:30:00,29.9,22.0,30.23,NW,311,2.0,-999.0,71,-99.99,,,0.00,0,weatherlink.com 1.10,2013-02-16 11:30:00,
2013-02-16 05:45:00,29.7,21.0,30.23,WNW,300,0.0,-999.0,71,-99.99,,,0.00,0,weatherlink.com 1.10,2013-02-16 11:45:00,
2013-02-16 06:00:00,29.4,21.0,30.23,WNW,297,0.0,-999.0,70,-99.99,,,0.00,0,weatherlink.com 1.10,2013-02-16 12:00:00,
2013-02-16 06:15:00,29.1,20.0,30.23,WNW,297,0.0,-999.0,70,-99.99,,,0.00,0,weatherlink.com 1.10,2013-02-16 12:15:00,
2013-02-16 06:30:00,28.8,20.0,30.23,WNW,297,0.0,-999.0,70,-99.99,,,0.00,0,weatherlink.com 1.10,2013-02-16 12:30:00,
2013-02-16 06:45:00,28.6,20.0,30.24,WNW,297,0.0,-999.0,70,-99.99,,,0.00,0,weatherlink.com 1.10,2013-02-16 12:45:00,
2013-02-16 07:00:00,28.3,20.0,30.24,WNW,297,0.0,-999.0,71,-99.99,,,0.00,11,weatherlink.com 1.10,2013-02-16 13:00:00,
2013-02-16 07:15:00,28.0,20.0,30.25,WNW,297,0.0,-999.0,72,-99.99,,,0.00,19,weatherlink.com 1.10,2013-02-16 13:15:00,
2013-02-16 07:30:00,28.0,20.0,30.25,WNW,296,2.0,-999.0,73,-99.99,,,0.00,28,weatherlink.com 1.10,2013-02-16 13:30:00,
2013-02-16 07:46:00,28.5,21.0,30.25,West,270,1.0,-999.0,73,-99.99,,,0.00,33,weatherlink.com 1.10,2013-02-16 13:46:00,
2013-02-16 08:01:00,28.9,21.0,30.25,North,360,0.0,-999.0,72,-99.99,,,0.00,42,weatherlink.com 1.10,2013-02-16 14:01:00,
2013-02-16 08:16:00,29.6,21.0,30.25,North,351,1.0,-999.0,71,-99.99,,,0.00,100,weatherlink.com 1.10,2013-02-16 14:16:00,
2013-02-16 08:31:00,30.5,21.0,30.26,WNW,292,0.0,-999.0,68,-99.99,,,0.00,158,weatherlink.com 1.10,2013-02-16 14:31:00,
2013-02-16 08:46:00,31.5,21.0,30.26,WNW,298,1.0,-999.0,66,-99.99,,,0.00,109,weatherlink.com 1.10,2013-02-16 14:46:00,
2013-02-16 09:01:00,32.0,21.0,30.26,NW,304,2.0,-999.0,65,-99.99,,,0.00,165,weatherlink.com 1.10,2013-02-16 15:01:00,
2013-02-16 09:16:00,33.3,21.0,30.26,North,5,2.0,-999.0,61,-99.99,,,0.00,156,weatherlink.com 1.10,2013-02-16 15:16:00,
2013-02-16 09:31:00,34.2,22.0,30.27,NNW,336,1.0,-999.0,61,-99.99,,,0.00,197,weatherlink.com 1.10,2013-02-16 15:31:00,
2013-02-16 09:46:00,34.2,22.0,30.28,NW,304,4.0,-999.0,61,-99.99,,,0.00,229,weatherlink.com 1.10,2013-02-16 15:46:00,
2013-02-16 10:01:00,33.5,22.0,30.28,West,275,1.0,-999.0,62,-99.99,,,0.00,132,weatherlink.com 1.10,2013-02-16 16:01:00,
2013-02-16 10:16:00,33.8,23.0,30.29,NNW,336,2.0,-999.0,64,-99.99,,,0.00,190,weatherlink.com 1.10,2013-02-16 16:16:00,
2013-02-16 10:31:00,33.4,22.0,30.29,NW,317,3.0,-999.0,62,-99.99,,,0.00,192,weatherlink.com 1.10,2013-02-16 16:31:00,
2013-02-16 10:46:00,33.3,23.0,30.30,NW,312,2.0,-999.0,65,-99.99,,,0.00,221,weatherlink.com 1.10,2013-02-16 16:46:00,
2013-02-16 11:01:00,34.0,22.0,30.29,West,259,5.0,-999.0,63,-99.99,,,0.00,146,weatherlink.com 1.10,2013-02-16 17:01:00,
2013-02-16 11:16:00,34.0,23.0,30.29,NW,312,2.0,-999.0,64,-99.99,,,0.00,580,weatherlink.com 1.10,2013-02-16 17:16:00,
2013-02-16 11:31:00,35.6,22.0,30.29,NNW,336,4.0,-999.0,59,-99.99,,,0.00,722,weatherlink.com 1.10,2013-02-16 17:31:00,
2013-02-16 11:46:00,35.5,23.0,30.29,WNW,284,1.0,-999.0,61,-99.99,,,0.00,649,weatherlink.com 1.10,2013-02-16 17:46:00,
2013-02-16 12:01:00,35.7,22.0,30.29,NNW,330,1.0,-999.0,59,-99.99,,,0.00,172,weatherlink.com 1.10,2013-02-16 18:01:00,
2013-02-16 12:16:00,35.5,24.0,30.28,West,277,5.0,-999.0,62,-99.99,,,0.00,209,weatherlink.com 1.10,2013-02-16 18:16:00,
2013-02-16 12:31:00,35.6,24.0,30.27,NW,306,2.0,-999.0,63,-99.99,,,0.00,214,weatherlink.com 1.10,2013-02-16 18:31:00,
2013-02-16 12:46:00,35.3,23.0,30.28,WSW,255,3.0,-999.0,62,-99.99,,,0.00,195,weatherlink.com 1.10,2013-02-16 18:46:00,
2013-02-16 13:01:00,35.7,24.0,30.27,NNW,338,1.0,-999.0,62,-99.99,,,0.00,788,weatherlink.com 1.10,2013-02-16 19:01:00,
2013-02-16 13:16:00,36.2,22.0,30.27,NNW,333,2.0,-999.0,57,-99.99,,,0.00,297,weatherlink.com 1.10,2013-02-16 19:16:00,
2013-02-16 13:31:00,35.7,22.0,30.27,NNW,330,2.0,-999.0,59,-99.99,,,0.00,188,weatherlink.com 1.10,2013-02-16 19:31:00,
2013-02-16 13:46:00,37.3,22.0,30.26,NNW,342,1.0,-999.0,55,-99.99,,,0.00,153,weatherlink.com 1.10,2013-02-16 19:46:00,
2013-02-16 14:01:00,35.8,21.0,30.26,North,350,0.0,-999.0,56,-99.99,,,0.00,121,weatherlink.com 1.10,2013-02-16 20:01:00,
2013-02-16 14:16:00,37.4,22.0,30.25,WNW,297,3.0,-999.0,53,-99.99,,,0.00,127,weatherlink.com 1.10,2013-02-16 20:16:00,
2013-02-16 14:31:00,36.7,20.0,30.25,West,277,2.0,-999.0,51,-99.99,,,0.00,56,weatherlink.com 1.10,2013-02-16 20:31:00,
2013-02-16 14:46:00,36.7,20.0,30.25,NNW,333,6.0,-999.0,51,-99.99,,,0.00,40,weatherlink.com 1.10,2013-02-16 20:46:00,
2013-02-16 15:01:00,37.0,19.0,30.25,NW,311,2.0,-999.0,49,-99.99,,,0.00,76,weatherlink.com 1.10,2013-02-16 21:01:00,
2013-02-16 15:16:00,37.1,18.0,30.25,NNW,333,2.0,-999.0,46,-99.99,,,0.00,276,weatherlink.com 1.10,2013-02-16 21:16:00,
2013-02-16 15:31:00,37.5,19.0,30.25,NW,319,2.0,-999.0,47,-99.99,,,0.00,104,weatherlink.com 1.10,2013-02-16 21:31:00,
2013-02-16 15:46:00,37.0,19.0,30.25,NNW,341,4.0,-999.0,48,-99.99,,,0.00,139,weatherlink.com 1.10,2013-02-16 21:46:00,
2013-02-16 16:01:00,37.0,18.0,30.25,NNW,338,0.0,-999.0,46,-99.99,,,0.00,84,weatherlink.com 1.10,2013-02-16 22:01:00,
2013-02-16 16:16:00,36.7,18.0,30.25,NW,315,1.0,-999.0,46,-99.99,,,0.00,79,weatherlink.com 1.10,2013-02-16 22:16:00,
2013-02-16 16:31:00,36.6,17.0,30.26,NW,311,2.0,-999.0,46,-99.99,,,0.00,37,weatherlink.com 1.10,2013-02-16 22:31:00,
2013-02-16 16:46:00,36.4,17.0,30.26,NNW,334,0.0,-999.0,46,-99.99,,,0.00,28,weatherlink.com 1.10,2013-02-16 22:46:00,
2013-02-16 17:01:00,35.9,17.0,30.26,NNW,340,2.0,-999.0,47,-99.99,,,0.00,14,weatherlink.com 1.10,2013-02-16 23:01:00,
2013-02-16 17:16:00,35.5,18.0,30.26,NNW,334,0.0,-999.0,49,-99.99,,,0.00,12,weatherlink.com 1.10,2013-02-16 23:16:00,
2013-02-16 17:31:00,35.4,18.0,30.26,WNW,287,0.0,-999.0,49,-99.99,,,0.00,7,weatherlink.com 1.10,2013-02-16 23:31:00,
2013-02-16 17:46:00,35.2,19.0,30.27,WNW,287,0.0,-999.0,52,-99.99,,,0.00,0,weatherlink.com 1.10,2013-02-16 23:46:00,
2013-02-16 18:01:00,34.4,19.0,30.26,WNW,287,0.0,-999.0,53,-99.99,,,0.00,0,weatherlink.com 1.10,2013-02-17 00:01:00,
2013-02-16 18:16:00,33.6,18.0,30.26,WNW,287,0.0,-999.0,54,-99.99,,,0.00,0,weatherlink.com 1.10,2013-02-17 00:16:00,
2013-02-16 18:31:00,32.5,18.0,30.27,WNW,287,0.0,-999.0,56,-99.99,,,0.00,0,weatherlink.com 1.10,2013-02-17 00:31:00,
2013-02-16 18:46:00,31.7,18.0,30.27,WNW,287,0.0,-999.0,57,-99.99,,,0.00,0,weatherlink.com 1.10,2013-02-17 00:46:00,
2013-02-16 19:01:00,31.0,18.0,30.27,WNW,287,0.0,-999.0,59,-99.99,,,0.00,0,weatherlink.com 1.10,2013-02-17 01:01:00,
2013-02-16 19:16:00,30.2,18.0,30.27,WNW,287,0.0,-999.0,61,-99.99,,,0.00,0,weatherlink.com 1.10,2013-02-17 01:16:00,
2013-02-16 19:31:00,29.5,18.0,30.27,WNW,287,0.0,-999.0,63,-99.99,,,0.00,0,weatherlink.com 1.10,2013-02-17 01:31:00,
2013-02-16 19:46:00,28.9,18.0,30.27,WNW,287,0.0,-999.0,64,-99.99,,,0.00,0,weatherlink.com 1.10,2013-02-17 01:46:00,
2013-02-16 20:01:00,28.5,19.0,30.27,WNW,287,0.0,-999.0,67,-99.99,,,0.00,0,weatherlink.com 1.10,2013-02-17 02:01:00,
2013-02-16 20:16:00,28.1,19.0,30.26,WNW,287,0.0,-999.0,69,-99.99,,,0.00,0,weatherlink.com 1.10,2013-02-17 02:16:00,
2013-02-16 20:31:00,27.7,19.0,30.26,WNW,287,0.0,-999.0,70,-99.99,,,0.00,0,weatherlink.com 1.10,2013-02-17 02:31:00,
2013-02-16 20:46:00,27.4,19.0,30.26,WNW,287,0.0,-999.0,72,-99.99,,,0.00,0,weatherlink.com 1.10,2013-02-17 02:46:00,
2013-02-16 21:01:00,27.1,19.0,30.27,WNW,287,0.0,-999.0,72,-99.99,,,0.00,0,weatherlink.com 1.10,2013-02-17 03:01:00,
2013-02-16 21:17:00,26.8,20.0,30.26,WNW,287,0.0,-999.0,74,-99.99,,,0.00,0,weatherlink.com 1.10,2013-02-17 03:17:00,
2013-02-16 21:32:00,26.6,20.0,30.26,WNW,287,0.0,-999.0,75,-99.99,,,0.00,0,weatherlink.com 1.10,2013-02-17 03:32:00,
2013-02-16 21:47:00,26.3,19.0,30.27,WNW,287,0.0,-999.0,74,-99.99,,,0.00,0,weatherlink.com 1.10,2013-02-17 03:47:00,
2013-02-16 22:02:00,26.2,20.0,30.27,WNW,287,0.0,-999.0,76,-99.99,,,0.00,0,weatherlink.com 1.10,2013-02-17 04:02:00,
2013-02-16 22:17:00,26.4,20.0,30.27,WNW,287,0.0,-999.0,78,-99.99,,,0.00,0,weatherlink.com 1.10,2013-02-17 04:17:00,
2013-02-16 22:32:00,26.7,21.0,30.26,WNW,287,0.0,-999.0,80,-99.99,,,0.00,0,weatherlink.com 1.10,2013-02-17 04:32:00,
2013-02-16 22:47:00,27.1,22.0,30.26,WNW,287,0.0,-999.0,81,-99.99,,,0.00,0,weatherlink.com 1.10,2013-02-17 04:47:00,
2013-02-16 23:02:00,27.2,22.0,30.26,WNW,287,0.0,-999.0,79,-99.99,,,0.00,0,weatherlink.com 1.10,2013-02-17 05:02:00,
2013-02-16 23:17:00,27.4,22.0,30.26,WNW,287,0.0,-999.0,79,-99.99,,,0.00,0,weatherlink.com 1.10,2013-02-17 05:17:00,
2013-02-16 23:32:00,27.5,22.0,30.26,WNW,287,0.0,-999.0,78,-99.99,,,0.00,0,weatherlink.com 1.10,2013-02-17 05:32:00,
2013-02-16 23:47:00,27.6,21.0,30.26,WNW,287,0.0,-999.0,77,-99.99,,,0.00,0,weatherlink.com 1.10,2013-02-17 05:47:00,